This is the latest recevied weather packets stored in our database for station/object KD9ZDW. If no packets are shown the sender has not sent any weather packets the latest 10 day(s).
| Time | Temp. | Humidity | Pressure | Rain* | Wind** | Luminosity | Snow |
|---|---|---|---|---|---|---|---|
| 1777737928 | 7.78° C | 52% | 1021.5 hPa | 0 mm | - | 196 W/m² | - |
| 1777737626 | 7.22° C | 52% | 1021.4 hPa | 0 mm | - | 310 W/m² | - |
| 1777737325 | 6.67° C | 53% | 1021.5 hPa | 0 mm | - | 257 W/m² | - |
| 1777737021 | 6.67° C | 51% | 1021.3 hPa | 0 mm | - | 225 W/m² | - |
| 1777736717 | 7.22° C | 50% | 1021.4 hPa | 0 mm | - | 195 W/m² | - |
| 1777736078 | 7.22° C | 54% | 1021.2 hPa | 0 mm | - | 240 W/m² | - |
| 1777735774 | 7.22° C | 53% | 1021.2 hPa | 0 mm | - | 126 W/m² | - |
| 1777735472 | 6.67° C | 53% | 1021.4 hPa | 0 mm | - | 331 W/m² | - |
| 1777735170 | 6.11° C | 52% | 1021.6 hPa | 0 mm | - | 459 W/m² | - |
| 1777734866 | 6.67° C | 55% | 1021.4 hPa | 0 mm | - | 340 W/m² | - |
| 1777734564 | 6.11° C | 56% | 1021.4 hPa | 0 mm | - | 95 W/m² | - |
| 1777734260 | 6.11° C | 61% | 1021.3 hPa | 0 mm | - | 348 W/m² | - |
| 1777733956 | 6.67° C | 57% | 1021.3 hPa | 0 mm | - | 159 W/m² | - |
| 1777733653 | 6.11° C | 56% | 1021.3 hPa | 0 mm | - | 341 W/m² | - |
| 1777733349 | 6.11° C | 56% | 1021.4 hPa | 0 mm | - | 139 W/m² | - |
| 1777733047 | 6.11° C | 54% | 1021.2 hPa | 0 mm | - | 149 W/m² | - |
| 1777732743 | 6.11° C | 55% | 1021.2 hPa | 0 mm | - | 220 W/m² | - |
| 1777732440 | 5.56° C | 59% | 1021.3 hPa | 0 mm | - | 182 W/m² | - |
| 1777732137 | 6.11° C | 55% | 1021.2 hPa | 0 mm | - | 94 W/m² | - |
| 1777731834 | 5.56° C | 53% | 1021.3 hPa | 0 mm | - | 273 W/m² | - |
| 1777731531 | 6.11° C | 56% | 1021.3 hPa | 0 mm | - | 152 W/m² | - |
| 1777731229 | 5.56° C | 58% | 1021.3 hPa | 0 mm | - | 137 W/m² | - |
| 1777730926 | 5° C | 59% | 1021.4 hPa | 0 mm | - | 278 W/m² | - |
| 1777730624 | 5.56° C | 58% | 1021.4 hPa | 0 mm | - | 164 W/m² | - |
| 1777730320 | 5.56° C | 57% | 1021.2 hPa | 0 mm | - | 59 W/m² | - |
* Rain latest hour (hover to see other rain measurements)
** Current wind speed in m/s (hover to see current wind gust speed)